User: anonymous   Login
Location: Unspecified
(0.0000°N, 0.0000°E)
Time: 16:01:44
(UTC+00:00)
Language:

SEEDS - Orbit

View from above orbital plane
View from above orbital plane
View from above satellite
View from above satellite

Ground track
Ground track

The orbit data is extracted from the following two-line orbital elements,

1 32791U 08021J   19078.48758834 +.00000319 +00000-0 +37791-4 0  9999
2 32791 097.5304 088.3770 0013477 174.9889 185.1467 14.90754889590442
Epoch (UTC): 19 March 2019 11:42:07
Eccentricity: 0.0013477
inclination: 97.5304°
perigee height: 586 km
apogee height: 605 km
right ascension of ascending node: 88.3770°
argument of perigee: 174.9889°
revolutions per day: 14.90754889
mean anomaly at epoch: 185.1467°
orbit number at epoch: 59044

The dashed part of the orbit path shows where the satellite is in the earth's shadow,  

DLR